Location: Unspecified
(0.0000°N, 0.0000°E)
Time: 13:58:48
(UTC+00:00)

ISS - Pass Details

Date: 19 May 2022
Orbit: 414 x 421 km, 51.6° (Epoch: 20 May)

Event Time Altitude Azimuth Distance (km) Brightness Sun altitude
Exits shadow 04:49:21 16° 188° (S) 1,187 -1.8 -15.8°
Drops below altitude 10° 04:50:18 10° 177° (S) 1,486 -1.1 -15.5°
Sets 04:52:37 0° 163° (SSE) 2,352 0.0 -15.0°
